Time,TemperatureF,DewpointF,PressureIn,WindDirection,WindDirectionDegrees,WindSpeedMPH,WindSpeedGustMPH,Humidity,HourlyPrecipIn,Conditions,Clouds,dailyrainin,SoftwareType,DateUTC
2013-03-31 00:00:00,43.0,41.7,29.78,West,267,10.2,-999.0,94,0.00,,,0.01,SSEC-RIG,2013-03-31 05:00:00,
2013-03-31 00:05:00,42.9,41.6,29.78,West,275,9.5,-999.0,94,0.00,,,0.01,SSEC-RIG,2013-03-31 05:05:00,
2013-03-31 00:10:00,42.7,41.6,29.78,West,280,10.4,-999.0,95,0.00,,,0.01,SSEC-RIG,2013-03-31 05:10:00,
2013-03-31 00:15:00,42.6,41.6,29.78,WNW,284,11.8,-999.0,95,0.00,,,0.01,SSEC-RIG,2013-03-31 05:15:00,
2013-03-31 00:20:00,42.4,41.6,29.78,WNW,287,11.1,-999.0,96,0.00,,,0.01,SSEC-RIG,2013-03-31 05:20:00,
2013-03-31 00:25:00,42.5,41.7,29.78,WNW,295,12.5,16.0,96,0.00,,,0.01,SSEC-RIG,2013-03-31 05:25:00,
2013-03-31 00:30:00,42.6,41.8,29.78,WNW,295,11.1,-999.0,96,0.00,,,0.01,SSEC-RIG,2013-03-31 05:30:00,
2013-03-31 00:35:00,42.7,41.8,29.78,WNW,301,12.0,-999.0,96,0.00,,,0.01,SSEC-RIG,2013-03-31 05:35:00,
2013-03-31 00:40:00,42.6,41.7,29.78,WNW,298,10.1,-999.0,95,0.00,,,0.01,SSEC-RIG,2013-03-31 05:40:00,
2013-03-31 00:45:00,42.7,41.7,29.77,WNW,302,10.3,-999.0,95,0.00,,,0.01,SSEC-RIG,2013-03-31 05:45:00,
2013-03-31 00:50:00,42.6,41.6,29.77,NW,305,12.6,-999.0,95,0.00,,,0.01,SSEC-RIG,2013-03-31 05:50:00,
2013-03-31 00:55:00,42.6,41.5,29.77,NW,307,10.0,-999.0,95,0.00,,,0.01,SSEC-RIG,2013-03-31 05:55:00,
2013-03-31 01:00:00,42.5,41.3,29.77,NW,310,10.4,-999.0,95,0.00,,,0.01,SSEC-RIG,2013-03-31 06:00:00,
2013-03-31 01:05:00,42.4,41.2,29.77,NW,311,9.3,-999.0,94,0.00,,,0.01,SSEC-RIG,2013-03-31 06:05:00,
2013-03-31 01:10:00,42.3,41.0,29.77,NW,316,10.0,-999.0,94,0.00,,,0.01,SSEC-RIG,2013-03-31 06:10:00,
2013-03-31 01:15:00,42.0,40.7,29.77,NW,318,12.6,16.1,94,0.00,,,0.01,SSEC-RIG,2013-03-31 06:15:00,
2013-03-31 01:20:00,41.8,40.5,29.77,NW,314,12.5,16.7,94,0.00,,,0.01,SSEC-RIG,2013-03-31 06:20:00,
2013-03-31 01:25:00,41.7,40.3,29.77,NW,317,10.5,16.2,93,0.00,,,0.01,SSEC-RIG,2013-03-31 06:25:00,
2013-03-31 01:30:00,41.6,40.0,29.77,NNW,328,10.5,-999.0,93,0.00,,,0.01,SSEC-RIG,2013-03-31 06:30:00,
2013-03-31 01:40:00,40.7,39.1,29.77,NNW,327,9.9,-999.0,93,0.00,,,0.01,SSEC-RIG,2013-03-31 06:40:00,
2013-03-31 01:45:00,40.5,38.7,29.77,NW,325,11.4,17.2,92,0.00,,,0.01,SSEC-RIG,2013-03-31 06:45:00,
2013-03-31 01:50:00,40.2,38.2,29.77,NW,322,13.6,17.5,91,0.00,,,0.01,SSEC-RIG,2013-03-31 06:50:00,
2013-03-31 01:55:00,40.0,37.7,29.77,NW,321,13.9,17.2,91,0.00,,,0.01,SSEC-RIG,2013-03-31 06:55:00,
2013-03-31 02:00:00,39.8,37.4,29.77,NW,321,14.7,18.5,90,0.00,,,0.01,SSEC-RIG,2013-03-31 07:00:00,
2013-03-31 02:05:00,39.6,37.1,29.77,NW,315,13.4,17.3,89,0.00,,,0.01,SSEC-RIG,2013-03-31 07:05:00,
2013-03-31 02:10:00,39.6,36.7,29.77,NW,315,11.5,-999.0,88,0.00,,,0.01,SSEC-RIG,2013-03-31 07:10:00,
2013-03-31 02:20:00,39.6,36.3,29.76,NW,314,11.8,-999.0,87,0.00,,,0.01,SSEC-RIG,2013-03-31 07:20:00,
2013-03-31 02:25:00,39.6,36.1,29.76,NW,314,12.2,16.0,86,0.00,,,0.01,SSEC-RIG,2013-03-31 07:25:00,
2013-03-31 02:35:00,39.5,35.7,29.76,NW,316,13.0,18.6,85,0.00,,,0.01,SSEC-RIG,2013-03-31 07:35:00,
2013-03-31 02:40:00,39.5,35.7,29.76,NW,317,14.2,18.5,85,0.00,,,0.01,SSEC-RIG,2013-03-31 07:40:00,
2013-03-31 02:45:00,39.4,35.6,29.75,NW,316,14.1,17.5,85,0.00,,,0.01,SSEC-RIG,2013-03-31 07:45:00,
2013-03-31 02:50:00,39.3,35.6,29.75,NW,313,13.6,17.5,85,0.00,,,0.01,SSEC-RIG,2013-03-31 07:50:00,
2013-03-31 03:00:00,39.3,35.7,29.75,NW,313,11.2,-999.0,86,0.00,,,0.01,SSEC-RIG,2013-03-31 08:00:00,
2013-03-31 03:10:00,39.3,35.9,29.75,NW,323,14.9,18.2,86,0.00,,,0.01,SSEC-RIG,2013-03-31 08:10:00,
2013-03-31 03:20:00,39.2,36.0,29.75,NW,315,11.2,16.2,87,0.00,,,0.01,SSEC-RIG,2013-03-31 08:20:00,
2013-03-31 03:25:00,39.2,36.0,29.75,NW,312,10.2,-999.0,87,0.00,,,0.01,SSEC-RIG,2013-03-31 08:25:00,
2013-03-31 03:30:00,39.3,36.1,29.75,NW,311,9.1,-999.0,87,0.00,,,0.01,SSEC-RIG,2013-03-31 08:30:00,
2013-03-31 03:40:00,39.3,36.1,29.75,NW,312,9.5,-999.0,87,0.00,,,0.01,SSEC-RIG,2013-03-31 08:40:00,
2013-03-31 03:50:00,39.4,36.3,29.75,NW,305,10.4,-999.0,87,0.00,,,0.01,SSEC-RIG,2013-03-31 08:50:00,
2013-03-31 04:00:00,39.6,36.3,29.75,NW,304,12.4,18.0,87,0.00,,,0.01,SSEC-RIG,2013-03-31 09:00:00,
2013-03-31 04:05:00,39.5,36.4,29.75,WNW,300,10.4,-999.0,87,0.00,,,0.01,SSEC-RIG,2013-03-31 09:05:00,
2013-03-31 04:10:00,39.5,36.4,29.75,WNW,286,10.3,-999.0,87,0.00,,,0.01,SSEC-RIG,2013-03-31 09:10:00,
2013-03-31 04:15:00,39.4,36.4,29.75,WNW,290,10.8,-999.0,88,0.00,,,0.01,SSEC-RIG,2013-03-31 09:15:00,
2013-03-31 04:25:00,39.6,36.6,29.75,WNW,298,6.5,-999.0,88,0.00,,,0.01,SSEC-RIG,2013-03-31 09:25:00,
2013-03-31 04:30:00,39.8,36.7,29.74,WNW,293,5.9,-999.0,88,0.00,,,0.01,SSEC-RIG,2013-03-31 09:30:00,
2013-03-31 04:35:00,39.8,36.7,29.74,WNW,288,8.6,-999.0,88,0.00,,,0.01,SSEC-RIG,2013-03-31 09:35:00,
2013-03-31 04:45:00,39.7,36.8,29.74,WNW,297,11.6,16.5,88,0.00,,,0.01,SSEC-RIG,2013-03-31 09:45:00,
2013-03-31 04:50:00,39.8,36.9,29.74,WNW,298,12.1,18.6,88,0.00,,,0.01,SSEC-RIG,2013-03-31 09:50:00,
2013-03-31 04:55:00,39.8,37.0,29.74,WNW,290,12.2,16.5,88,0.00,,,0.01,SSEC-RIG,2013-03-31 09:55:00,
2013-03-31 05:00:00,39.7,37.0,29.74,WNW,294,11.7,-999.0,89,0.00,,,0.01,SSEC-RIG,2013-03-31 10:00:00,
2013-03-31 05:05:00,39.7,37.0,29.74,WNW,293,12.2,16.0,89,0.00,,,0.01,SSEC-RIG,2013-03-31 10:05:00,
2013-03-31 05:10:00,39.6,37.1,29.73,WNW,294,13.4,18.7,89,0.00,,,0.01,SSEC-RIG,2013-03-31 10:10:00,
2013-03-31 05:15:00,39.6,37.2,29.73,WNW,294,11.9,-999.0,90,0.00,,,0.01,SSEC-RIG,2013-03-31 10:15:00,
2013-03-31 05:25:00,39.4,37.2,29.73,WNW,286,12.9,16.1,90,0.00,,,0.01,SSEC-RIG,2013-03-31 10:25:00,
2013-03-31 05:30:00,39.4,37.4,29.73,WNW,295,11.0,-999.0,92,0.00,,,0.01,SSEC-RIG,2013-03-31 10:30:00,
2013-03-31 05:35:00,39.3,37.5,29.73,WNW,290,10.1,-999.0,92,0.00,,,0.01,SSEC-RIG,2013-03-31 10:35:00,
2013-03-31 05:45:00,39.3,37.7,29.73,WNW,292,9.1,-999.0,93,0.00,,,0.01,SSEC-RIG,2013-03-31 10:45:00,
2013-03-31 05:50:00,39.3,37.7,29.73,West,281,6.2,-999.0,93,0.00,,,0.01,SSEC-RIG,2013-03-31 10:50:00,
2013-03-31 05:55:00,39.2,37.6,29.73,WNW,285,10.6,-999.0,93,0.00,,,0.01,SSEC-RIG,2013-03-31 10:55:00,
2013-03-31 06:00:00,39.2,37.7,29.73,WNW,285,7.2,-999.0,93,0.00,,,0.01,SSEC-RIG,2013-03-31 11:00:00,
2013-03-31 06:05:00,39.1,37.6,29.73,West,280,10.5,-999.0,93,0.00,,,0.01,SSEC-RIG,2013-03-31 11:05:00,
2013-03-31 06:10:00,39.1,37.6,29.73,WNW,290,9.8,-999.0,93,0.00,,,0.01,SSEC-RIG,2013-03-31 11:10:00,
2013-03-31 06:20:00,39.0,37.6,29.73,WNW,290,10.1,-999.0,93,0.00,,,0.01,SSEC-RIG,2013-03-31 11:20:00,
2013-03-31 06:30:00,38.9,37.4,29.73,WNW,286,9.7,-999.0,93,0.00,,,0.01,SSEC-RIG,2013-03-31 11:30:00,
2013-03-31 06:35:00,38.8,37.4,29.73,WNW,282,9.1,-999.0,94,0.00,,,0.01,SSEC-RIG,2013-03-31 11:35:00,
2013-03-31 06:40:00,38.8,37.4,29.73,West,281,8.6,-999.0,94,0.00,,,0.01,SSEC-RIG,2013-03-31 11:40:00,
2013-03-31 06:45:00,38.7,37.3,29.73,West,280,9.5,-999.0,93,0.00,,,0.01,SSEC-RIG,2013-03-31 11:45:00,
2013-03-31 06:50:00,38.6,37.2,29.73,West,275,9.4,-999.0,93,0.00,,,0.01,SSEC-RIG,2013-03-31 11:50:00,
2013-03-31 06:55:00,38.5,36.9,29.72,WNW,290,11.1,-999.0,93,0.00,,,0.01,SSEC-RIG,2013-03-31 11:55:00,
2013-03-31 07:00:00,38.4,36.8,29.72,WNW,284,10.3,-999.0,93,0.00,,,0.01,SSEC-RIG,2013-03-31 12:00:00,
2013-03-31 07:05:00,38.4,36.8,29.73,West,280,9.7,-999.0,93,0.00,,,0.01,SSEC-RIG,2013-03-31 12:05:00,
2013-03-31 07:10:00,38.4,36.8,29.72,West,280,8.1,-999.0,93,0.00,,,0.01,SSEC-RIG,2013-03-31 12:10:00,
2013-03-31 07:15:00,38.3,36.6,29.72,West,278,8.8,-999.0,93,0.00,,,0.01,SSEC-RIG,2013-03-31 12:15:00,
2013-03-31 07:20:00,38.3,36.6,29.72,WNW,283,8.2,-999.0,92,0.00,,,0.01,SSEC-RIG,2013-03-31 12:20:00,
2013-03-31 07:25:00,38.3,36.5,29.72,West,281,8.5,-999.0,92,0.00,,,0.01,SSEC-RIG,2013-03-31 12:25:00,
2013-03-31 07:30:00,38.2,36.5,29.73,West,276,7.5,-999.0,92,0.00,,,0.01,SSEC-RIG,2013-03-31 12:30:00,
2013-03-31 07:35:00,38.2,36.5,29.73,West,266,6.9,-999.0,92,0.00,,,0.01,SSEC-RIG,2013-03-31 12:35:00,
2013-03-31 07:40:00,38.2,36.5,29.72,West,276,6.1,-999.0,93,0.00,,,0.01,SSEC-RIG,2013-03-31 12:40:00,
2013-03-31 07:45:00,38.3,36.5,29.72,West,268,5.7,-999.0,92,0.00,,,0.01,SSEC-RIG,2013-03-31 12:45:00,
2013-03-31 07:50:00,38.2,36.3,29.72,West,274,7.5,-999.0,92,0.00,,,0.01,SSEC-RIG,2013-03-31 12:50:00,
2013-03-31 07:55:00,38.2,36.2,29.72,West,276,8.7,-999.0,91,0.00,,,0.01,SSEC-RIG,2013-03-31 12:55:00,
2013-03-31 08:00:00,38.3,36.1,29.72,West,265,6.2,-999.0,91,0.00,,,0.01,SSEC-RIG,2013-03-31 13:00:00,
2013-03-31 08:05:00,38.1,36.1,29.72,West,266,6.2,-999.0,91,0.00,,,0.01,SSEC-RIG,2013-03-31 13:05:00,
2013-03-31 08:10:00,38.2,36.0,29.72,West,275,8.1,-999.0,91,0.00,,,0.01,SSEC-RIG,2013-03-31 13:10:00,
2013-03-31 08:15:00,38.2,36.0,29.72,West,267,7.2,-999.0,90,0.00,,,0.01,SSEC-RIG,2013-03-31 13:15:00,
2013-03-31 08:20:00,38.3,35.9,29.72,WSW,256,9.6,-999.0,90,0.00,,,0.01,SSEC-RIG,2013-03-31 13:20:00,
2013-03-31 08:25:00,38.2,35.9,29.72,West,261,8.3,-999.0,90,0.00,,,0.01,SSEC-RIG,2013-03-31 13:25:00,
2013-03-31 08:30:00,38.5,36.0,29.71,WSW,257,6.7,-999.0,90,0.00,,,0.01,SSEC-RIG,2013-03-31 13:30:00,
2013-03-31 08:35:00,38.5,36.0,29.71,West,261,7.0,-999.0,89,0.00,,,0.01,SSEC-RIG,2013-03-31 13:35:00,
2013-03-31 08:40:00,38.4,35.9,29.71,West,269,9.4,-999.0,90,0.00,,,0.01,SSEC-RIG,2013-03-31 13:40:00,
2013-03-31 08:45:00,38.4,35.9,29.71,West,279,9.5,-999.0,89,0.00,,,0.01,SSEC-RIG,2013-03-31 13:45:00,
2013-03-31 08:55:00,38.9,35.8,29.71,West,274,7.7,-999.0,88,0.00,,,0.01,SSEC-RIG,2013-03-31 13:55:00,
2013-03-31 09:00:00,38.3,35.5,29.71,West,263,10.5,-999.0,88,0.00,,,0.01,SSEC-RIG,2013-03-31 14:00:00,
2013-03-31 09:05:00,38.1,35.6,29.71,West,263,10.8,-999.0,89,0.00,,,0.01,SSEC-RIG,2013-03-31 14:05:00,
2013-03-31 09:10:00,38.4,35.6,29.70,West,260,7.7,-999.0,89,0.00,,,0.01,SSEC-RIG,2013-03-31 14:10:00,
2013-03-31 09:15:00,39.0,35.7,29.70,West,259,7.7,-999.0,87,0.00,,,0.01,SSEC-RIG,2013-03-31 14:15:00,
2013-03-31 09:20:00,39.1,35.4,29.70,WSW,249,10.0,-999.0,85,0.00,,,0.01,SSEC-RIG,2013-03-31 14:20:00,
2013-03-31 09:25:00,39.4,35.4,29.70,West,269,9.1,-999.0,84,0.00,,,0.01,SSEC-RIG,2013-03-31 14:25:00,
2013-03-31 09:30:00,40.1,35.2,29.70,West,263,10.0,-999.0,81,0.00,,,0.01,SSEC-RIG,2013-03-31 14:30:00,
2013-03-31 09:40:00,40.8,34.9,29.70,West,269,12.0,16.7,78,0.00,,,0.01,SSEC-RIG,2013-03-31 14:40:00,
2013-03-31 09:45:00,41.2,34.9,29.70,West,272,9.3,-999.0,77,0.00,,,0.01,SSEC-RIG,2013-03-31 14:45:00,
2013-03-31 09:55:00,41.9,34.7,29.70,West,277,10.8,17.9,75,0.00,,,0.01,SSEC-RIG,2013-03-31 14:55:00,
2013-03-31 10:00:00,42.3,34.9,29.70,West,275,11.4,19.4,74,0.00,,,0.01,SSEC-RIG,2013-03-31 15:00:00,
2013-03-31 10:05:00,42.1,34.9,29.70,West,270,12.7,18.6,74,0.00,,,0.01,SSEC-RIG,2013-03-31 15:05:00,
2013-03-31 10:15:00,42.4,34.6,29.69,WNW,288,15.2,18.6,73,0.00,,,0.01,SSEC-RIG,2013-03-31 15:15:00,
2013-03-31 10:20:00,42.9,34.5,29.70,WNW,293,12.9,18.2,71,0.00,,,0.01,SSEC-RIG,2013-03-31 15:20:00,
2013-03-31 10:25:00,43.1,34.0,29.70,WNW,287,13.0,19.8,69,0.00,,,0.01,SSEC-RIG,2013-03-31 15:25:00,
2013-03-31 10:30:00,43.3,33.6,29.69,WNW,285,18.3,24.0,67,0.00,,,0.01,SSEC-RIG,2013-03-31 15:30:00,
2013-03-31 10:35:00,43.4,33.4,29.70,WNW,285,14.0,19.2,66,0.00,,,0.01,SSEC-RIG,2013-03-31 15:35:00,
2013-03-31 10:45:00,43.5,33.3,29.70,WNW,293,14.9,17.6,66,0.00,,,0.01,SSEC-RIG,2013-03-31 15:45:00,
2013-03-31 10:50:00,43.8,33.1,29.70,WNW,296,16.4,21.3,65,0.00,,,0.01,SSEC-RIG,2013-03-31 15:50:00,
2013-03-31 10:55:00,43.9,32.2,29.70,WNW,290,16.2,21.7,62,0.00,,,0.01,SSEC-RIG,2013-03-31 15:55:00,
2013-03-31 11:00:00,44.1,31.8,29.70,WNW,282,18.1,22.4,61,0.00,,,0.01,SSEC-RIG,2013-03-31 16:00:00,
2013-03-31 11:05:00,44.0,31.9,29.70,WNW,296,16.0,21.8,61,0.00,,,0.01,SSEC-RIG,2013-03-31 16:05:00,
2013-03-31 11:15:00,44.2,32.0,29.70,WNW,290,17.1,23.0,61,0.00,,,0.01,SSEC-RIG,2013-03-31 16:15:00,
2013-03-31 11:20:00,44.1,32.0,29.70,WNW,295,16.8,20.8,61,0.00,,,0.01,SSEC-RIG,2013-03-31 16:20:00,
2013-03-31 11:25:00,44.1,32.1,29.70,WNW,296,15.2,19.3,62,0.00,,,0.01,SSEC-RIG,2013-03-31 16:25:00,
2013-03-31 11:30:00,44.1,32.1,29.70,WNW,291,15.1,20.8,62,0.00,,,0.01,SSEC-RIG,2013-03-31 16:30:00,
2013-03-31 11:35:00,44.3,31.7,29.70,WNW,294,14.6,19.9,60,0.00,,,0.01,SSEC-RIG,2013-03-31 16:35:00,
2013-03-31 11:40:00,44.4,32.0,29.70,WNW,297,12.0,17.7,60,0.00,,,0.01,SSEC-RIG,2013-03-31 16:40:00,
2013-03-31 11:45:00,44.4,31.8,29.70,NW,314,12.1,18.7,60,0.00,,,0.01,SSEC-RIG,2013-03-31 16:45:00,
2013-03-31 11:50:00,44.4,31.8,29.70,WNW,300,12.2,17.5,60,0.00,,,0.01,SSEC-RIG,2013-03-31 16:50:00,
2013-03-31 12:00:00,44.6,32.0,29.70,NW,305,14.0,19.4,60,0.00,,,0.01,SSEC-RIG,2013-03-31 17:00:00,
2013-03-31 12:05:00,44.1,32.1,29.70,NW,310,14.7,19.3,61,0.00,,,0.01,SSEC-RIG,2013-03-31 17:05:00,
2013-03-31 12:10:00,44.0,32.3,29.70,NW,308,13.9,18.6,62,0.00,,,0.01,SSEC-RIG,2013-03-31 17:10:00,
2013-03-31 12:15:00,43.9,32.6,29.70,NW,310,12.8,16.3,63,0.00,,,0.01,SSEC-RIG,2013-03-31 17:15:00,
2013-03-31 12:20:00,44.3,32.7,29.70,WNW,291,13.9,18.8,63,0.00,,,0.01,SSEC-RIG,2013-03-31 17:20:00,
2013-03-31 12:25:00,44.3,32.8,29.69,WNW,301,13.9,19.1,63,0.00,,,0.01,SSEC-RIG,2013-03-31 17:25:00,
2013-03-31 12:30:00,44.4,32.7,29.69,WNW,291,16.0,24.2,62,0.00,,,0.01,SSEC-RIG,2013-03-31 17:30:00,
2013-03-31 12:35:00,43.6,32.8,29.69,WNW,288,16.5,20.5,65,0.00,,,0.01,SSEC-RIG,2013-03-31 17:35:00,
2013-03-31 12:40:00,43.2,32.5,29.69,WNW,284,17.4,21.4,65,0.00,,,0.01,SSEC-RIG,2013-03-31 17:40:00,
2013-03-31 12:45:00,43.6,32.8,29.70,WNW,301,10.9,17.8,64,0.00,,,0.01,SSEC-RIG,2013-03-31 17:45:00,
2013-03-31 12:50:00,42.8,32.5,29.70,NW,314,15.9,22.3,66,0.00,,,0.01,SSEC-RIG,2013-03-31 17:50:00,
2013-03-31 12:55:00,41.9,32.1,29.70,NW,306,20.0,24.9,67,0.00,,,0.01,SSEC-RIG,2013-03-31 17:55:00,
2013-03-31 13:00:00,41.1,31.7,29.70,NW,311,17.3,25.0,68,0.00,,,0.01,SSEC-RIG,2013-03-31 18:00:00,
2013-03-31 13:05:00,40.7,32.0,29.71,NW,313,17.8,24.4,70,0.00,,,0.01,SSEC-RIG,2013-03-31 18:05:00,
2013-03-31 13:10:00,40.1,32.3,29.71,NW,313,17.3,24.7,72,0.00,,,0.01,SSEC-RIG,2013-03-31 18:10:00,
2013-03-31 13:15:00,39.9,32.4,29.71,NW,310,20.1,28.9,74,0.00,,,0.01,SSEC-RIG,2013-03-31 18:15:00,
2013-03-31 13:20:00,39.8,32.6,29.71,NW,311,23.7,29.8,74,0.00,,,0.01,SSEC-RIG,2013-03-31 18:20:00,
2013-03-31 13:25:00,39.3,32.1,29.71,NW,315,18.6,28.6,74,0.00,,,0.01,SSEC-RIG,2013-03-31 18:25:00,
2013-03-31 13:30:00,39.5,32.3,29.71,NW,308,19.0,29.3,74,0.00,,,0.01,SSEC-RIG,2013-03-31 18:30:00,
2013-03-31 13:35:00,39.6,32.1,29.71,NW,307,20.7,29.2,73,0.00,,,0.01,SSEC-RIG,2013-03-31 18:35:00,
2013-03-31 13:40:00,39.4,32.3,29.71,WNW,298,25.5,33.2,74,0.00,,,0.01,SSEC-RIG,2013-03-31 18:40:00,
2013-03-31 13:45:00,39.0,32.1,29.71,WNW,289,25.6,35.9,75,0.00,,,0.01,SSEC-RIG,2013-03-31 18:45:00,
2013-03-31 13:50:00,38.8,32.5,29.72,WNW,294,24.8,30.9,77,0.00,,,0.01,SSEC-RIG,2013-03-31 18:50:00,
2013-03-31 13:55:00,38.7,32.6,29.72,WNW,291,24.3,31.3,78,0.00,,,0.01,SSEC-RIG,2013-03-31 18:55:00,
2013-03-31 14:00:00,38.7,32.3,29.71,WNW,291,24.2,31.4,77,0.00,,,0.01,SSEC-RIG,2013-03-31 19:00:00,
2013-03-31 14:05:00,38.4,32.2,29.72,WNW,290,23.9,32.7,77,0.00,,,0.01,SSEC-RIG,2013-03-31 19:05:00,
2013-03-31 14:15:00,38.4,32.2,29.72,WNW,291,24.9,32.4,77,0.00,,,0.01,SSEC-RIG,2013-03-31 19:15:00,
2013-03-31 14:25:00,38.1,31.1,29.72,WNW,301,21.2,26.8,75,0.00,,,0.01,SSEC-RIG,2013-03-31 19:25:00,
2013-03-31 14:30:00,38.0,30.6,29.72,WNW,297,20.1,29.5,73,0.00,,,0.01,SSEC-RIG,2013-03-31 19:30:00,
2013-03-31 14:35:00,38.1,30.3,29.73,WNW,297,15.3,24.5,72,0.00,,,0.01,SSEC-RIG,2013-03-31 19:35:00,
2013-03-31 14:40:00,38.1,29.9,29.73,NW,306,20.4,27.8,71,0.00,,,0.01,SSEC-RIG,2013-03-31 19:40:00,
2013-03-31 14:50:00,38.0,29.6,29.73,WNW,292,16.2,23.4,71,0.00,,,0.01,SSEC-RIG,2013-03-31 19:50:00,
2013-03-31 14:55:00,38.1,29.4,29.73,WNW,297,18.0,26.3,70,0.00,,,0.01,SSEC-RIG,2013-03-31 19:55:00,
2013-03-31 15:05:00,37.9,28.9,29.73,NW,305,19.1,24.6,69,0.00,,,0.01,SSEC-RIG,2013-03-31 20:05:00,
2013-03-31 15:10:00,38.0,28.6,29.73,NW,304,20.1,25.4,68,0.00,,,0.01,SSEC-RIG,2013-03-31 20:10:00,
2013-03-31 15:15:00,38.1,28.8,29.73,NW,307,17.1,24.8,68,0.00,,,0.01,SSEC-RIG,2013-03-31 20:15:00,
2013-03-31 15:20:00,38.1,28.6,29.73,NW,311,16.8,23.2,67,0.00,,,0.01,SSEC-RIG,2013-03-31 20:20:00,
2013-03-31 15:25:00,38.2,28.5,29.73,NW,309,17.9,23.1,67,0.00,,,0.01,SSEC-RIG,2013-03-31 20:25:00,
2013-03-31 15:30:00,38.5,28.5,29.73,NW,312,16.3,21.6,66,0.00,,,0.01,SSEC-RIG,2013-03-31 20:30:00,
2013-03-31 15:40:00,38.4,28.7,29.73,NW,308,15.9,20.6,67,0.00,,,0.01,SSEC-RIG,2013-03-31 20:40:00,
2013-03-31 15:45:00,38.7,28.7,29.73,NW,308,14.2,20.8,66,0.00,,,0.01,SSEC-RIG,2013-03-31 20:45:00,
2013-03-31 15:50:00,38.8,28.5,29.73,NW,310,15.0,21.6,65,0.00,,,0.01,SSEC-RIG,2013-03-31 20:50:00,
2013-03-31 15:55:00,38.5,28.4,29.73,NW,309,15.8,19.5,66,0.00,,,0.01,SSEC-RIG,2013-03-31 20:55:00,
2013-03-31 16:00:00,38.6,28.6,29.73,WNW,297,13.7,19.2,66,0.00,,,0.01,SSEC-RIG,2013-03-31 21:00:00,
2013-03-31 16:05:00,38.6,28.6,29.72,NW,311,17.3,24.6,66,0.00,,,0.01,SSEC-RIG,2013-03-31 21:05:00,
2013-03-31 16:10:00,38.5,28.7,29.73,NW,306,14.5,20.0,67,0.00,,,0.01,SSEC-RIG,2013-03-31 21:10:00,
2013-03-31 16:15:00,38.6,28.9,29.73,NW,305,20.6,27.2,67,0.00,,,0.01,SSEC-RIG,2013-03-31 21:15:00,
2013-03-31 16:20:00,38.6,28.9,29.73,WNW,302,18.3,24.6,67,0.00,,,0.01,SSEC-RIG,2013-03-31 21:20:00,
2013-03-31 16:25:00,38.8,28.3,29.73,WNW,302,19.4,25.4,65,0.00,,,0.01,SSEC-RIG,2013-03-31 21:25:00,
2013-03-31 16:30:00,39.0,27.8,29.73,NW,305,18.7,26.2,63,0.00,,,0.01,SSEC-RIG,2013-03-31 21:30:00,
2013-03-31 16:35:00,39.1,27.4,29.73,NW,304,21.3,27.1,62,0.00,,,0.01,SSEC-RIG,2013-03-31 21:35:00,
2013-03-31 16:40:00,39.1,27.4,29.73,NW,308,18.7,25.2,61,0.00,,,0.01,SSEC-RIG,2013-03-31 21:40:00,
2013-03-31 16:45:00,39.1,26.8,29.74,NW,311,20.7,27.3,60,0.00,,,0.01,SSEC-RIG,2013-03-31 21:45:00,
2013-03-31 16:50:00,38.7,26.9,29.74,NW,311,19.1,25.6,61,0.00,,,0.01,SSEC-RIG,2013-03-31 21:50:00,
2013-03-31 16:55:00,38.8,27.0,29.74,NW,306,16.4,24.7,61,0.00,,,0.01,SSEC-RIG,2013-03-31 21:55:00,
2013-03-31 17:05:00,38.6,26.8,29.74,NW,305,17.1,25.2,61,0.00,,,0.01,SSEC-RIG,2013-03-31 22:05:00,
2013-03-31 17:10:00,39.2,26.7,29.74,WNW,299,21.6,26.5,60,0.00,,,0.01,SSEC-RIG,2013-03-31 22:10:00,
2013-03-31 17:15:00,39.4,26.7,29.74,WNW,302,19.2,26.2,59,0.00,,,0.01,SSEC-RIG,2013-03-31 22:15:00,
2013-03-31 17:20:00,39.1,26.2,29.74,NW,304,17.7,25.0,59,0.00,,,0.01,SSEC-RIG,2013-03-31 22:20:00,
2013-03-31 17:25:00,38.9,26.1,29.74,NW,306,16.8,23.1,59,0.00,,,0.01,SSEC-RIG,2013-03-31 22:25:00,
2013-03-31 17:35:00,38.9,25.8,29.75,WNW,300,14.8,18.7,58,0.00,,,0.01,SSEC-RIG,2013-03-31 22:35:00,
2013-03-31 17:40:00,38.7,25.9,29.75,NW,305,13.2,17.8,59,0.00,,,0.01,SSEC-RIG,2013-03-31 22:40:00,
2013-03-31 17:45:00,38.7,26.0,29.75,WNW,290,11.7,16.1,59,0.00,,,0.01,SSEC-RIG,2013-03-31 22:45:00,
2013-03-31 17:50:00,38.7,25.6,29.75,WNW,297,15.6,22.3,58,0.00,,,0.01,SSEC-RIG,2013-03-31 22:50:00,
2013-03-31 17:55:00,38.8,25.8,29.75,WNW,288,13.1,18.6,58,0.00,,,0.01,SSEC-RIG,2013-03-31 22:55:00,
2013-03-31 18:00:00,38.8,25.5,29.75,WNW,294,13.0,21.1,58,0.00,,,0.01,SSEC-RIG,2013-03-31 23:00:00,
2013-03-31 18:05:00,38.7,25.5,29.75,WNW,290,15.1,22.0,58,0.00,,,0.01,SSEC-RIG,2013-03-31 23:05:00,
2013-03-31 18:10:00,38.7,25.6,29.75,WNW,295,13.5,21.8,58,0.00,,,0.01,SSEC-RIG,2013-03-31 23:10:00,
2013-03-31 18:15:00,38.9,25.8,29.75,WNW,292,13.6,20.9,58,0.00,,,0.01,SSEC-RIG,2013-03-31 23:15:00,
2013-03-31 18:20:00,38.7,25.8,29.75,WNW,293,14.8,19.6,58,0.00,,,0.01,SSEC-RIG,2013-03-31 23:20:00,
2013-03-31 18:25:00,38.8,25.9,29.76,NW,306,13.9,20.0,59,0.00,,,0.01,SSEC-RIG,2013-03-31 23:25:00,
2013-03-31 18:30:00,38.8,26.3,29.75,NW,306,19.7,31.3,60,0.00,,,0.01,SSEC-RIG,2013-03-31 23:30:00,
2013-03-31 18:35:00,38.2,28.4,29.75,NW,305,24.7,31.2,67,0.00,,,0.01,SSEC-RIG,2013-03-31 23:35:00,
2013-03-31 18:45:00,35.1,26.8,29.77,NW,316,17.7,29.0,71,0.00,,,0.01,SSEC-RIG,2013-03-31 23:45:00,
2013-03-31 18:50:00,35.5,25.1,29.77,NW,307,12.2,19.3,64,0.00,,,0.01,SSEC-RIG,2013-03-31 23:50:00,
2013-03-31 19:00:00,35.9,25.1,29.77,NW,309,14.6,19.8,64,0.00,,,0.01,SSEC-RIG,2013-04-01 00:00:00,
2013-03-31 19:05:00,36.0,25.3,29.78,NW,309,14.0,21.2,64,0.00,,,0.00,SSEC-RIG,2013-04-01 00:05:00,
2013-03-31 19:10:00,35.9,25.4,29.78,NW,318,13.7,16.4,64,0.00,,,0.00,SSEC-RIG,2013-04-01 00:10:00,
2013-03-31 19:15:00,35.9,25.8,29.78,NW,322,14.5,20.3,66,0.00,,,0.00,SSEC-RIG,2013-04-01 00:15:00,
2013-03-31 19:25:00,35.8,26.6,29.78,NW,324,12.5,18.5,68,0.00,,,0.00,SSEC-RIG,2013-04-01 00:25:00,
2013-03-31 19:35:00,35.5,26.6,29.78,NW,316,11.2,16.9,69,0.00,,,0.00,SSEC-RIG,2013-04-01 00:35:00,
2013-03-31 19:40:00,35.6,26.6,29.79,NW,308,11.0,-999.0,68,0.00,,,0.00,SSEC-RIG,2013-04-01 00:40:00,
2013-03-31 19:45:00,35.7,26.3,29.79,WNW,301,11.0,-999.0,67,0.00,,,0.00,SSEC-RIG,2013-04-01 00:45:00,
2013-03-31 19:50:00,35.8,25.4,29.79,NW,307,11.2,-999.0,65,0.00,,,0.00,SSEC-RIG,2013-04-01 00:50:00,
2013-03-31 19:55:00,35.9,24.5,29.79,NW,307,11.9,18.6,62,0.00,,,0.00,SSEC-RIG,2013-04-01 00:55:00,
2013-03-31 20:00:00,36.0,23.8,29.79,NW,309,15.0,18.5,60,0.00,,,0.00,SSEC-RIG,2013-04-01 01:00:00,
2013-03-31 20:05:00,36.0,23.8,29.79,NW,309,12.4,17.9,60,0.00,,,0.00,SSEC-RIG,2013-04-01 01:05:00,
2013-03-31 20:10:00,36.0,23.8,29.80,NW,313,11.2,17.1,60,0.00,,,0.00,SSEC-RIG,2013-04-01 01:10:00,
2013-03-31 20:15:00,36.0,23.8,29.80,NW,313,12.8,18.1,60,0.00,,,0.00,SSEC-RIG,2013-04-01 01:15:00,
2013-03-31 20:25:00,35.9,23.9,29.81,NW,314,11.4,-999.0,60,0.00,,,0.00,SSEC-RIG,2013-04-01 01:25:00,
2013-03-31 20:30:00,35.8,23.8,29.81,NW,312,11.6,16.2,61,0.00,,,0.00,SSEC-RIG,2013-04-01 01:30:00,
2013-03-31 20:40:00,35.9,22.9,29.81,NW,316,12.0,18.0,58,0.00,,,0.00,SSEC-RIG,2013-04-01 01:40:00,
2013-03-31 20:45:00,35.7,22.1,29.82,NW,316,14.4,22.0,57,0.00,,,0.00,SSEC-RIG,2013-04-01 01:45:00,
2013-03-31 20:55:00,35.6,19.8,29.82,NW,319,16.8,23.5,51,0.00,,,0.00,SSEC-RIG,2013-04-01 01:55:00,
2013-03-31 21:00:00,35.5,19.1,29.82,NW,319,17.5,23.8,50,0.00,,,0.00,SSEC-RIG,2013-04-01 02:00:00,
2013-03-31 21:05:00,35.4,18.8,29.82,NW,320,18.3,24.6,50,0.00,,,0.00,SSEC-RIG,2013-04-01 02:05:00,
2013-03-31 21:10:00,35.4,18.8,29.83,NW,320,13.5,20.6,50,0.00,,,0.00,SSEC-RIG,2013-04-01 02:10:00,
2013-03-31 21:15:00,35.1,18.3,29.83,NW,325,17.1,22.7,49,0.00,,,0.00,SSEC-RIG,2013-04-01 02:15:00,
2013-03-31 21:20:00,35.0,18.3,29.83,NW,322,15.2,20.5,49,0.00,,,0.00,SSEC-RIG,2013-04-01 02:20:00,
2013-03-31 21:25:00,34.8,18.5,29.83,NW,323,14.1,17.6,50,0.00,,,0.00,SSEC-RIG,2013-04-01 02:25:00,
2013-03-31 21:35:00,34.6,18.4,29.84,NW,323,15.2,19.2,50,0.00,,,0.00,SSEC-RIG,2013-04-01 02:35:00,
2013-03-31 21:40:00,34.5,18.3,29.84,NW,323,15.0,19.9,50,0.00,,,0.00,SSEC-RIG,2013-04-01 02:40:00,
2013-03-31 21:45:00,34.3,18.3,29.84,NW,321,14.5,18.8,51,0.00,,,0.00,SSEC-RIG,2013-04-01 02:45:00,
2013-03-31 21:50:00,34.2,18.3,29.84,NW,320,14.5,20.5,51,0.00,,,0.00,SSEC-RIG,2013-04-01 02:50:00,
2013-03-31 21:55:00,34.1,17.9,29.85,NW,320,15.8,20.2,50,0.00,,,0.00,SSEC-RIG,2013-04-01 02:55:00,
2013-03-31 22:00:00,34.0,17.5,29.85,NW,321,17.1,22.5,50,0.00,,,0.00,SSEC-RIG,2013-04-01 03:00:00,
2013-03-31 22:05:00,34.0,17.4,29.85,NW,325,15.2,20.9,49,0.00,,,0.00,SSEC-RIG,2013-04-01 03:05:00,
2013-03-31 22:10:00,33.8,17.3,29.85,NW,322,15.4,21.5,49,0.00,,,0.00,SSEC-RIG,2013-04-01 03:10:00,
2013-03-31 22:15:00,33.7,17.2,29.85,NW,321,14.2,19.2,49,0.00,,,0.00,SSEC-RIG,2013-04-01 03:15:00,
2013-03-31 22:20:00,33.6,17.0,29.85,NW,322,16.0,20.6,49,0.00,,,0.00,SSEC-RIG,2013-04-01 03:20:00,
2013-03-31 22:25:00,33.5,16.9,29.85,NW,318,16.3,21.6,49,0.00,,,0.00,SSEC-RIG,2013-04-01 03:25:00,
2013-03-31 22:30:00,33.4,16.7,29.86,NW,318,15.9,21.6,49,0.00,,,0.00,SSEC-RIG,2013-04-01 03:30:00,
2013-03-31 22:35:00,33.4,16.5,29.86,NW,316,15.8,20.1,48,0.00,,,0.00,SSEC-RIG,2013-04-01 03:35:00,
2013-03-31 22:40:00,33.3,16.5,29.86,NW,315,14.1,21.4,49,0.00,,,0.00,SSEC-RIG,2013-04-01 03:40:00,
2013-03-31 22:45:00,33.2,16.3,29.86,NW,319,16.1,25.1,49,0.00,,,0.00,SSEC-RIG,2013-04-01 03:45:00,
2013-03-31 22:50:00,33.1,16.2,29.86,NW,319,16.8,22.1,49,0.00,,,0.00,SSEC-RIG,2013-04-01 03:50:00,
2013-03-31 22:55:00,33.0,16.2,29.86,NW,320,14.0,19.5,49,0.00,,,0.00,SSEC-RIG,2013-04-01 03:55:00,
2013-03-31 23:05:00,32.8,16.1,29.86,NW,319,17.8,24.8,49,0.00,,,0.00,SSEC-RIG,2013-04-01 04:05:00,
2013-03-31 23:10:00,32.6,16.1,29.86,NW,320,18.1,23.0,49,0.00,,,0.00,SSEC-RIG,2013-04-01 04:10:00,
2013-03-31 23:15:00,32.5,16.2,29.86,NW,323,17.7,22.1,50,0.00,,,0.00,SSEC-RIG,2013-04-01 04:15:00,
2013-03-31 23:20:00,32.5,16.1,29.86,NW,320,19.7,24.5,50,0.00,,,0.00,SSEC-RIG,2013-04-01 04:20:00,
2013-03-31 23:25:00,32.4,16.2,29.87,NW,321,17.1,23.4,50,0.00,,,0.00,SSEC-RIG,2013-04-01 04:25:00,
2013-03-31 23:30:00,32.3,16.3,29.87,NW,322,18.0,22.3,50,0.00,,,0.00,SSEC-RIG,2013-04-01 04:30:00,
2013-03-31 23:35:00,32.2,16.3,29.87,NW,321,17.4,22.4,51,0.00,,,0.00,SSEC-RIG,2013-04-01 04:35:00,
2013-03-31 23:45:00,32.1,16.1,29.87,NW,321,18.0,24.3,50,0.00,,,0.00,SSEC-RIG,2013-04-01 04:45:00,
2013-03-31 23:50:00,32.0,16.0,29.87,NW,320,18.2,24.1,50,0.00,,,0.00,SSEC-RIG,2013-04-01 04:50:00,
2013-03-31 23:55:00,31.9,16.0,29.88,NW,322,17.5,22.7,50,0.00,,,0.00,SSEC-RIG,2013-04-01 04:55:00,